Location: Heppenheim
(49.6410°N, 8.6370°E)
Time: 16:25:20
(UTC+02:00)

ISS - Pass Details

Date: 09 May 2026
Orbit: 414 x 424 km, 51.6° (Epoch: 10 May)

Event Time Altitude Azimuth Distance (km) Brightness Sun altitude
Rises 01:40:51 0° 280° (W) 2,356 0.1 -22.9°
Enters shadow 01:41:23 - 281° (W) 2,138 -0.1 -22.9°
Exits shadow 01:50:53 - 91° (E) 2,008 -0.2 -22.7°
Sets 01:51:44 0° 92° (E) 2,362 0.1 -22.7°
